This is the latest recevied weather packets stored in our database for station/object HB9DDE-10. If no packets are shown the sender has not sent any weather packets the latest 10 day(s).
| Time | Temp. | Humidity | Pressure | Rain* | Wind** | Luminosity | Snow |
|---|---|---|---|---|---|---|---|
| 1787760449 | 28.89° C | 50% | 1015 hPa | 0 mm | - | - | - |
| 1787760159 | 29.44° C | 51% | 1014.9 hPa | 0 mm | - | - | - |
| 1787759850 | 29.44° C | 49% | 1014.9 hPa | 0 mm | - | - | - |
| 1787759540 | 29.44° C | 49% | 1015 hPa | 0 mm | - | - | - |
| 1787759253 | 29.44° C | 48% | 1015.1 hPa | 0 mm | - | - | - |
| 1787758944 | 30° C | 49% | 1015.2 hPa | 0 mm | - | - | - |
| 1787758655 | 30° C | 48% | 1015.3 hPa | 0 mm | - | - | - |
| 1787758346 | 30° C | 47% | 1015.4 hPa | 0 mm | - | - | - |
| 1787758040 | 30° C | 49% | 1015.5 hPa | 0 mm | - | - | - |
| 1787757752 | 30° C | 44% | 1015.5 hPa | 0 mm | - | - | - |
| 1787757442 | 30.56° C | 43% | 1015.5 hPa | 0 mm | - | - | - |
| 1787757154 | 30.56° C | 43% | 1015.6 hPa | 0 mm | - | - | - |
| 1787756845 | 31.11° C | 44% | 1015.7 hPa | 0 mm | - | - | - |
| 1787756555 | 30.56° C | 47% | 1015.6 hPa | 0 mm | - | - | - |
| 1787756246 | 30.56° C | 45% | 1015.6 hPa | 0 mm | - | - | - |
| 1787755957 | 31.11° C | 42% | 1015.8 hPa | 0 mm | - | - | - |
| 1787755651 | 31.11° C | 43% | 1015.8 hPa | 0 mm | - | - | - |
| 1787755340 | 31.11° C | 44% | 1015.8 hPa | 0 mm | - | - | - |
| 1787755050 | 30.56° C | 44% | 1015.8 hPa | 0 mm | - | - | - |
| 1787754741 | 30.56° C | 44% | 1015.9 hPa | 0 mm | - | - | - |
| 1787754454 | 31.11° C | 44% | 1015.8 hPa | 0 mm | - | - | - |
| 1787754145 | 31.11° C | 42% | 1015.8 hPa | 0 mm | - | - | - |
| 1787753855 | 31.67° C | 41% | 1015.9 hPa | 0 mm | - | - | - |
| 1787753545 | 31.11° C | 45% | 1016 hPa | 0 mm | - | - | - |
| 1787753239 | 31.11° C | 44% | 1016.1 hPa | 0 mm | - | - | - |
* Rain latest hour (hover to see other rain measurements)
** Current wind speed in m/s (hover to see current wind gust speed)